| time (UTC) | temp C | wind direction | speed KPH | gust KPH | rain 1hr cm | rain 24hr cm | rain mn cm | humidity % | barometer mb |
| 20260509064507 | 17 | 134 | 1.6 | 4.8 | 0.00 | 0.00 | 0.00 | 84 | 1012.2 |
| 20260509064007 | 17 | 129 | 1.6 | 4.8 | 0.00 | 0.00 | 0.00 | 84 | 1012.3 |
| 20260509063506 | 17 | 132 | 3.2 | 4.8 | 0.00 | 0.00 | 0.00 | 83 | 1012.4 |
| 20260509063006 | 17 | 144 | 1.6 | 4.8 | 0.00 | 0.00 | 0.00 | 83 | 1012.6 |
| 20260509062506 | 17 | 126 | 0.0 | 3.2 | 0.00 | 0.00 | 0.00 | 83 | 1012.5 |
| 20260509062007 | 17 | 128 | 1.6 | 4.8 | 0.00 | 0.00 | 0.00 | 83 | 1012.6 |
| 20260509061506 | 17 | 153 | 1.6 | 3.2 | 0.00 | 0.00 | 0.00 | 83 | 1012.7 |
| 20260509061006 | 17 | 153 | 1.6 | 3.2 | 0.00 | 0.00 | 0.00 | 82 | 1012.8 |
| 20260509060506 | 17 | 153 | 1.6 | 3.2 | 0.00 | 0.00 | 0.00 | 82 | 1012.8 |
| 20260509060006 | 17 | 153 | 0.0 | 1.6 | 0.00 | 0.00 | 0.00 | 82 | 1012.8 |
| 20260509055507 | 17 | 153 | 0.0 | 3.2 | 0.00 | 0.00 | 0.00 | 82 | 1012.8 |
| 20260509055006 | 17 | 217 | 1.6 | 4.8 | 0.00 | 0.00 | 0.00 | 81 | 1013.1 |
| 20260509054506 | 17 | 222 | 0.0 | 1.6 | 0.00 | 0.00 | 0.00 | 81 | 1012.9 |
| 20260509053007 | 17 | 133 | 3.2 | 4.8 | 0.00 | 0.00 | 0.00 | 80 | 1013.0 |
| 20260509052506 | 17 | 157 | 0.0 | 1.6 | 0.00 | 0.00 | 0.00 | 79 | 1013.5 |
| 20260509052006 | 17 | 157 | 0.0 | 1.6 | 0.00 | 0.00 | 0.00 | 78 | 1013.5 |
| 20260509051006 | 17 | 157 | 0.0 | 3.2 | 0.00 | 0.00 | 0.00 | 78 | 1013.2 |
| 20260509050506 | 17 | 157 | 0.0 | 1.6 | 0.00 | 0.00 | 0.00 | 78 | 1013.3 |
| 20260509050006 | 17 | 157 | 0.0 | 1.6 | 0.00 | 0.00 | 0.00 | 79 | 1013.3 |
| 20260509045507 | 17 | 157 | 0.0 | 1.6 | 0.00 | 0.00 | 0.00 | 79 | 1013.7 |
| 20260509045006 | 17 | 157 | 0.0 | 0.0 | 0.00 | 0.00 | 0.00 | 79 | 1013.9 |
| 20260509044506 | 17 | 157 | 0.0 | 0.0 | 0.00 | 0.00 | 0.00 | 79 | 1014.0 |
| 20260509043506 | 17 | 157 | 0.0 | 1.6 | 0.00 | 0.00 | 0.00 | 77 | 1014.0 |
| 20260509043006 | 17 | 157 | 0.0 | 0.0 | 0.00 | 0.00 | 0.00 | 78 | 1014.0 |
| 20260509042506 | 17 | 157 | 0.0 | 0.0 | 0.00 | 0.00 | 0.00 | 78 | 1014.0 |
| 20260509042006 | 17 | 157 | 0.0 | 0.0 | 0.00 | 0.00 | 0.00 | 76 | 1014.0 |
| 20260509041506 | 17 | 157 | 0.0 | 0.0 | 0.00 | 0.00 | 0.00 | 77 | 1014.0 |
| 20260509040506 | 17 | 157 | 0.0 | 0.0 | 0.00 | 0.00 | 0.00 | 78 | 1014.1 |
| 20260509040006 | 17 | 157 | 0.0 | 1.6 | 0.00 | 0.00 | 0.00 | 78 | 1014.2 |
| 20260509035506 | 17 | 157 | 0.0 | 1.6 | 0.00 | 0.00 | 0.00 | 78 | 1014.1 |
| 20260509035006 | 17 | 157 | 0.0 | 0.0 | 0.00 | 0.00 | 0.00 | 78 | 1014.4 |
| 20260509034505 | 17 | 157 | 0.0 | 0.0 | 0.00 | 0.00 | 0.00 | 76 | 1014.2 |
| 20260509034006 | 17 | 157 | 0.0 | 0.0 | 0.00 | 0.00 | 0.00 | 76 | 1014.2 |
| 20260509033506 | 17 | 157 | 0.0 | 0.0 | 0.00 | 0.00 | 0.00 | 76 | 1014.1 |
| 20260509033006 | 17 | 157 | 0.0 | 0.0 | 0.00 | 0.00 | 0.00 | 76 | 1014.3 |
| 20260509032506 | 17 | 157 | 0.0 | 0.0 | 0.00 | 0.00 | 0.00 | 76 | 1014.5 |
| 20260509032006 | 17 | 157 | 0.0 | 0.0 | 0.00 | 0.00 | 0.00 | 76 | 1014.4 |
| 20260509031506 | 17 | 157 | 0.0 | 0.0 | 0.00 | 0.00 | 0.00 | 75 | 1014.7 |
| 20260509030005 | 17 | 157 | 0.0 | 0.0 | 0.00 | 0.00 | 0.00 | 75 | 1014.3 |
| 20260509025506 | 18 | 157 | 0.0 | 0.0 | 0.00 | 0.00 | 0.00 | 74 | 1014.2 |
| 20260509025006 | 18 | 157 | 0.0 | 0.0 | 0.00 | 0.00 | 0.00 | 73 | 1014.2 |
| 20260509024506 | 18 | 157 | 0.0 | 0.0 | 0.00 | 0.00 | 0.00 | 73 | 1013.9 |
| 20260509024005 | 18 | 157 | 0.0 | 0.0 | 0.00 | 0.00 | 0.00 | 72 | 1013.9 |
| 20260509023506 | 18 | 157 | 0.0 | 0.0 | 0.00 | 0.00 | 0.00 | 73 | 1014.1 |
| 20260509023006 | 18 | 157 | 0.0 | 0.0 | 0.00 | 0.00 | 0.00 | 73 | 1014.1 |
| 20260509022506 | 18 | 157 | 0.0 | 0.0 | 0.00 | 0.00 | 0.00 | 72 | 1014.3 |
| 20260509022006 | 18 | 157 | 0.0 | 0.0 | 0.00 | 0.00 | 0.00 | 72 | 1014.4 |
| 20260509021005 | 18 | 157 | 0.0 | 0.0 | 0.00 | 0.00 | 0.00 | 70 | 1014.5 |
| 20260509020005 | 18 | 157 | 0.0 | 0.0 | 0.00 | 0.00 | 0.00 | 70 | 1014.6 |
| 20260509015506 | 18 | 157 | 0.0 | 0.0 | 0.00 | 0.00 | 0.00 | 69 | 1014.5 |
| 20260509015006 | 18 | 157 | 0.0 | 0.0 | 0.00 | 0.00 | 0.00 | 68 | 1014.4 |
| 20260509014006 | 18 | 157 | 0.0 | 0.0 | 0.00 | 0.00 | 0.00 | 69 | 1014.4 |
| 20260509013506 | 18 | 103 | 0.0 | 0.0 | 0.00 | 0.00 | 0.00 | 68 | 1014.2 |
| 20260509013006 | 19 | 103 | 0.0 | 1.6 | 0.00 | 0.00 | 0.00 | 69 | 1014.3 |
| 20260509012005 | 19 | 99 | 0.0 | 3.2 | 0.00 | 0.00 | 0.00 | 68 | 1014.3 |
| 20260509011505 | 19 | 98 | 0.0 | 0.0 | 0.00 | 0.00 | 0.00 | 67 | 1014.3 |
| 20260509010505 | 19 | 316 | 0.0 | 1.6 | 0.00 | 0.00 | 0.00 | 67 | 1014.3 |
| 20260509010006 | 19 | 316 | 0.0 | 0.0 | 0.00 | 0.00 | 0.00 | 66 | 1014.5 |
| 20260509005506 | 20 | 316 | 0.0 | 0.0 | 0.00 | 0.00 | 0.00 | 65 | 1014.4 |
| 20260509005006 | 20 | 316 | 0.0 | 1.6 | 0.00 | 0.00 | 0.00 | 65 | 1014.2 |
| 20260509004506 | 20 | 297 | 0.0 | 1.6 | 0.00 | 0.00 | 0.00 | 64 | 1013.9 |
| 20260509004005 | 20 | 198 | 0.0 | 0.0 | 0.00 | 0.00 | 0.00 | 64 | 1013.8 |
| 20260509003505 | 20 | 198 | 1.6 | 1.6 | 0.00 | 0.00 | 0.00 | 63 | 1013.7 |
| 20260509003006 | 20 | 198 | 0.0 | 1.6 | 0.00 | 0.00 | 0.00 | 62 | 1014.0 |
| 20260509002506 | 20 | 198 | 0.0 | 1.6 | 0.00 | 0.00 | 0.00 | 62 | 1014.1 |
| 20260509001505 | 20 | 198 | 0.0 | 1.6 | 0.00 | 0.00 | 0.00 | 61 | 1014.0 |
| 20260509000506 | 20 | 198 | 0.0 | 1.6 | 0.00 | 0.00 | 0.00 | 60 | 1013.7 |
| 20260509000006 | 20 | 198 | 0.0 | 1.6 | 0.00 | 0.00 | 0.00 | 61 | 1013.6 |
| 20260508235005 | 21 | 198 | 0.0 | 1.6 | 0.00 | 0.00 | 0.00 | 60 | 1013.2 |
| 20260508234505 | 21 | 198 | 0.0 | 3.2 | 0.00 | 0.00 | 0.00 | 59 | 1013.3 |
| 20260508234005 | 21 | 198 | 0.0 | 1.6 | 0.00 | 0.00 | 0.00 | 58 | 1013.5 |
| 20260508233505 | 21 | 198 | 1.6 | 3.2 | 0.00 | 0.00 | 0.00 | 59 | 1013.3 |
| 20260508233005 | 21 | 198 | 0.0 | 1.6 | 0.00 | 0.00 | 0.00 | 59 | 1013.4 |
| 20260508232005 | 21 | 207 | 1.6 | 4.8 | 0.00 | 0.00 | 0.00 | 58 | 1013.7 |
| 20260508231505 | 21 | 176 | 0.0 | 3.2 | 0.00 | 0.00 | 0.00 | 58 | 1013.7 |
| 20260508230505 | 21 | 118 | 1.6 | 3.2 | 0.00 | 0.00 | 0.00 | 57 | 1013.6 |
| 20260508230005 | 21 | 116 | 1.6 | 4.8 | 0.00 | 0.00 | 0.00 | 56 | 1013.4 |
| 20260508225505 | 21 | 120 | 1.6 | 4.8 | 0.00 | 0.00 | 0.00 | 56 | 1013.4 |
| 20260508225006 | 21 | 136 | 1.6 | 4.8 | 0.00 | 0.00 | 0.00 | 56 | 1013.5 |
| 20260508224505 | 21 | 122 | 1.6 | 4.8 | 0.00 | 0.00 | 0.00 | 55 | 1013.5 |
| 20260508223505 | 21 | 114 | 1.6 | 8.0 | 0.00 | 0.00 | 0.00 | 57 | 1013.4 |
| 20260508223005 | 21 | 145 | 1.6 | 9.7 | 0.00 | 0.00 | 0.00 | 56 | 1013.5 |
| 20260508222005 | 21 | 149 | 1.6 | 8.0 | 0.00 | 0.00 | 0.00 | 55 | 1013.7 |
| 20260508221005 | 21 | 127 | 1.6 | 3.2 | 0.00 | 0.00 | 0.00 | 54 | 1013.6 |
| 20260508220505 | 21 | 148 | 3.2 | 4.8 | 0.00 | 0.00 | 0.00 | 53 | 1013.8 |
| 20260508220005 | 22 | 124 | 3.2 | 9.7 | 0.00 | 0.00 | 0.00 | 52 | 1013.8 |
| 20260508215005 | 22 | 127 | 3.2 | 4.8 | 0.00 | 0.00 | 0.00 | 53 | 1013.7 |
| 20260508214505 | 22 | 153 | 1.6 | 8.0 | 0.00 | 0.00 | 0.00 | 53 | 1013.6 |
| 20260508214005 | 22 | 182 | 1.6 | 4.8 | 0.00 | 0.00 | 0.00 | 52 | 1013.7 |
| 20260508212505 | 22 | 119 | 3.2 | 4.8 | 0.00 | 0.00 | 0.00 | 52 | 1013.6 |
| 20260508212005 | 22 | 143 | 3.2 | 4.8 | 0.00 | 0.00 | 0.00 | 52 | 1013.7 |
| 20260508211504 | 22 | 140 | 4.8 | 9.7 | 0.00 | 0.00 | 0.00 | 51 | 1013.5 |
| 20260508211005 | 22 | 140 | 1.6 | 4.8 | 0.00 | 0.00 | 0.00 | 52 | 1013.5 |
| 20260508210505 | 22 | 129 | 4.8 | 11.3 | 0.00 | 0.00 | 0.00 | 50 | 1013.4 |
| 20260508210005 | 22 | 133 | 4.8 | 11.3 | 0.00 | 0.00 | 0.00 | 49 | 1013.4 |
| 20260508205505 | 23 | 136 | 3.2 | 4.8 | 0.00 | 0.00 | 0.00 | 51 | 1013.4 |
| 20260508205005 | 23 | 144 | 3.2 | 14.5 | 0.00 | 0.00 | 0.00 | 50 | 1013.4 |
| 20260508204505 | 23 | 136 | 1.6 | 4.8 | 0.00 | 0.00 | 0.00 | 49 | 1013.4 |
| 20260508204005 | 23 | 100 | 3.2 | 8.0 | 0.00 | 0.00 | 0.00 | 50 | 1013.4 |
| 20260508203505 | 23 | 183 | 1.6 | 11.3 | 0.00 | 0.00 | 0.00 | 50 | 1013.4 |
| 20260508203005 | 23 | 174 | 1.6 | 9.7 | 0.00 | 0.00 | 0.00 | 47 | 1013.5 |
| 20260508202505 | 23 | 98 | 3.2 | 4.8 | 0.00 | 0.00 | 0.00 | 49 | 1013.7 |
| 20260508202004 | 23 | 134 | 1.6 | 4.8 | 0.00 | 0.00 | 0.00 | 48 | 1013.9 |
| 20260508201505 | 23 | 182 | 1.6 | 8.0 | 0.00 | 0.00 | 0.00 | 47 | 1014.0 |
| 20260508201005 | 23 | 141 | 3.2 | 4.8 | 0.00 | 0.00 | 0.00 | 47 | 1013.9 |
| 20260508200505 | 23 | 134 | 3.2 | 11.3 | 0.00 | 0.00 | 0.00 | 46 | 1013.9 |
| 20260508200004 | 23 | 124 | 3.2 | 4.8 | 0.00 | 0.00 | 0.00 | 47 | 1014.0 |
| 20260508195004 | 23 | 93 | 4.8 | 11.3 | 0.00 | 0.00 | 0.00 | 46 | 1014.0 |
| 20260508194505 | 23 | 67 | 4.8 | 12.9 | 0.00 | 0.00 | 0.00 | 46 | 1014.1 |
| 20260508194005 | 23 | 172 | 1.6 | 4.8 | 0.00 | 0.00 | 0.00 | 47 | 1014.3 |
| 20260508193004 | 23 | 100 | 3.2 | 12.9 | 0.00 | 0.00 | 0.00 | 47 | 1014.3 |
| 20260508191504 | 23 | 127 | 4.8 | 12.9 | 0.00 | 0.00 | 0.00 | 49 | 1014.3 |
| 20260508191004 | 22 | 244 | 4.8 | 11.3 | 0.00 | 0.00 | 0.00 | 46 | 1014.4 |
| 20260508190005 | 23 | 154 | 3.2 | 9.7 | 0.00 | 0.00 | 0.00 | 46 | 1014.6 |
| 20260508185505 | 22 | 100 | 1.6 | 11.3 | 0.00 | 0.00 | 0.00 | 49 | 1014.5 |
| 20260508185005 | 22 | 137 | 4.8 | 8.0 | 0.00 | 0.00 | 0.00 | 46 | 1014.9 |
| 20260508184504 | 23 | 232 | 4.8 | 9.7 | 0.00 | 0.00 | 0.00 | 47 | 1015.2 |
| 20260508184005 | 23 | 91 | 3.2 | 8.0 | 0.00 | 0.00 | 0.00 | 45 | 1015.2 |
| 20260508183504 | 23 | 171 | 3.2 | 8.0 | 0.00 | 0.00 | 0.00 | 48 | 1015.3 |
| 20260508183004 | 23 | 218 | 3.2 | 9.7 | 0.00 | 0.00 | 0.00 | 46 | 1015.4 |
| 20260508182005 | 23 | 142 | 1.6 | 3.2 | 0.00 | 0.00 | 0.00 | 47 | 1015.3 |
| 20260508181505 | 22 | 45 | 0.0 | 8.0 | 0.00 | 0.00 | 0.00 | 49 | 1015.5 |
| 20260508180504 | 23 | 142 | 4.8 | 11.3 | 0.00 | 0.00 | 0.00 | 47 | 1015.5 |
| 20260508180005 | 22 | 141 | 4.8 | 9.7 | 0.00 | 0.00 | 0.00 | 49 | 1015.7 |
| 20260508175505 | 22 | 127 | 4.8 | 12.9 | 0.00 | 0.00 | 0.00 | 48 | 1015.7 |
| 20260508174004 | 22 | 205 | 1.6 | 9.7 | 0.00 | 0.00 | 0.00 | 48 | 1015.5 |
| 20260508173505 | 22 | 137 | 3.2 | 4.8 | 0.00 | 0.00 | 0.00 | 48 | 1015.7 |
| 20260508173005 | 22 | 114 | 8.0 | 16.1 | 0.00 | 0.00 | 0.00 | 49 | 1015.6 |
| 20260508172504 | 22 | 206 | 4.8 | 9.7 | 0.00 | 0.00 | 0.00 | 49 | 1015.9 |
| 20260508172004 | 22 | 221 | 3.2 | 4.8 | 0.00 | 0.00 | 0.00 | 49 | 1016.1 |
| 20260508171505 | 22 | 84 | 1.6 | 4.8 | 0.00 | 0.00 | 0.00 | 50 | 1016.3 |
| 20260508171004 | 22 | 137 | 3.2 | 9.7 | 0.00 | 0.00 | 0.00 | 50 | 1016.4 |
| 20260508170504 | 22 | 59 | 3.2 | 9.7 | 0.00 | 0.03 | 0.00 | 49 | 1016.3 |
| 20260508170005 | 22 | 190 | 1.6 | 9.7 | 0.00 | 0.03 | 0.00 | 50 | 1016.4 |
| 20260508165004 | 22 | 125 | 3.2 | 4.8 | 0.00 | 0.03 | 0.00 | 50 | 1016.4 |
| 20260508164504 | 21 | 104 | 3.2 | 9.7 | 0.00 | 0.03 | 0.00 | 48 | 1016.6 |
| 20260508163504 | 21 | 86 | 3.2 | 16.1 | 0.00 | 0.05 | 0.00 | 51 | 1016.7 |
| 20260508163004 | 21 | 141 | 3.2 | 11.3 | 0.00 | 0.05 | 0.00 | 50 | 1016.9 |
| 20260508162004 | 21 | 131 | 1.6 | 8.0 | 0.00 | 0.05 | 0.00 | 50 | 1016.7 |
| 20260508161504 | 21 | 109 | 4.8 | 8.0 | 0.00 | 0.05 | 0.00 | 49 | 1016.8 |
| 20260508161004 | 21 | 66 | 1.6 | 3.2 | 0.00 | 0.05 | 0.00 | 51 | 1016.9 |
| 20260508160504 | 20 | 297 | 1.6 | 4.8 | 0.00 | 0.10 | 0.00 | 51 | 1016.9 |
| 20260508160004 | 20 | 137 | 6.4 | 12.9 | 0.00 | 0.15 | 0.00 | 49 | 1017.0 |
| 20260508154504 | 20 | 33 | 1.6 | 4.8 | 0.00 | 0.23 | 0.00 | 51 | 1017.0 |
| 20260508154004 | 20 | 131 | 1.6 | 9.7 | 0.00 | 0.23 | 0.00 | 50 | 1017.1 |
| 20260508153504 | 20 | 113 | 6.4 | 14.5 | 0.00 | 0.25 | 0.00 | 49 | 1017.1 |
| 20260508153004 | 21 | 109 | 3.2 | 11.3 | 0.00 | 0.25 | 0.00 | 50 | 1017.2 |
| 20260508152504 | 21 | 129 | 6.4 | 16.1 | 0.00 | 0.25 | 0.00 | 48 | 1017.4 |
| 20260508152004 | 21 | 121 | 1.6 | 4.8 | 0.00 | 0.25 | 0.00 | 50 | 1017.4 |
| 20260508151504 | 21 | 52 | 1.6 | 4.8 | 0.00 | 0.25 | 0.00 | 49 | 1017.4 |
| 20260508151004 | 21 | 125 | 3.2 | 4.8 | 0.00 | 0.28 | 0.00 | 50 | 1017.4 |
| 20260508150504 | 20 | 172 | 3.2 | 11.3 | 0.00 | 0.30 | 0.00 | 50 | 1017.4 |
| 20260508150005 | 20 | 342 | 1.6 | 4.8 | 0.00 | 0.33 | 0.00 | 48 | 1017.3 |
| 20260508145504 | 20 | 57 | 3.2 | 11.3 | 0.00 | 0.38 | 0.00 | 52 | 1017.5 |
| 20260508145004 | 20 | 119 | 8.0 | 16.1 | 0.00 | 0.56 | 0.00 | 49 | 1017.5 |
| 20260508144504 | 20 | 98 | 4.8 | 14.5 | 0.00 | 1.07 | 0.00 | 47 | 1017.5 |
| 20260508143504 | 20 | 90 | 4.8 | 11.3 | 0.00 | 1.17 | 0.00 | 49 | 1017.6 |
| 20260508143004 | 20 | 317 | 1.6 | 4.8 | 0.00 | 1.17 | 0.00 | 49 | 1017.6 |
| 20260508142504 | 20 | 33 | 3.2 | 8.0 | 0.00 | 1.17 | 0.00 | 51 | 1017.7 |
| 20260508142005 | 20 | 14 | 3.2 | 11.3 | 0.00 | 1.17 | 0.00 | 52 | 1017.6 |
| 20260508141504 | 20 | 51 | 3.2 | 14.5 | 0.00 | 1.22 | 0.00 | 53 | 1017.6 |
| 20260508141004 | 20 | 62 | 3.2 | 12.9 | 0.00 | 1.24 | 0.00 | 53 | 1017.5 |
| 20260508135003 | 18 | 234 | 1.6 | 4.8 | 0.00 | 1.57 | 0.00 | 60 | 1017.5 |
| 20260508134504 | 18 | 94 | 3.2 | 11.3 | 0.00 | 1.60 | 0.00 | 60 | 1017.5 |
| 20260508134004 | 18 | 36 | 1.6 | 4.8 | 0.00 | 1.63 | 0.00 | 63 | 1017.6 |
| 20260508133504 | 18 | 341 | 3.2 | 8.0 | 0.00 | 1.65 | 0.00 | 64 | 1017.6 |
| 20260508133004 | 18 | 100 | 1.6 | 8.0 | 0.00 | 1.68 | 0.00 | 65 | 1017.6 |
| 20260508132504 | 17 | 314 | 3.2 | 4.8 | 0.00 | 1.70 | 0.00 | 66 | 1017.7 |
| 20260508132003 | 17 | 213 | 0.0 | 4.8 | 0.00 | 1.73 | 0.00 | 70 | 1017.5 |
| 20260508131504 | 17 | 329 | 1.6 | 3.2 | 0.00 | 1.75 | 0.00 | 70 | 1017.3 |
| 20260508131003 | 17 | 177 | 0.0 | 8.0 | 0.00 | 1.78 | 0.00 | 72 | 1017.1 |
| 20260508130504 | 17 | 323 | 3.2 | 8.0 | 0.00 | 1.80 | 0.00 | 72 | 1016.9 |
| 20260508130004 | 17 | 159 | 1.6 | 4.8 | 0.00 | 1.83 | 0.00 | 73 | 1017.0 |
| 20260508124507 | 16 | 341 | 1.6 | 4.8 | 0.00 | 1.83 | 0.00 | 79 | 1016.8 |
| 20260508124007 | 16 | 311 | 1.6 | 4.8 | 0.00 | 1.83 | 0.00 | 80 | 1016.7 |
| 20260508123508 | 15 | 333 | 1.6 | 4.8 | 0.00 | 1.83 | 0.00 | 82 | 1016.6 |
| 20260508122008 | 15 | 290 | 0.0 | 3.2 | 0.00 | 1.83 | 0.00 | 86 | 1016.5 |
| 20260508121507 | 15 | 128 | 0.0 | 1.6 | 0.00 | 1.83 | 0.00 | 86 | 1016.5 |
| 20260508121007 | 15 | 38 | 0.0 | 1.6 | 0.00 | 1.83 | 0.00 | 87 | 1016.4 |
| 20260508120507 | 14 | 5 | 0.0 | 1.6 | 0.00 | 1.83 | 0.00 | 87 | 1016.3 |
| 20260508120007 | 14 | 5 | 0.0 | 1.6 | 0.00 | 1.83 | 0.00 | 88 | 1016.2 |
| 20260508115507 | 14 | 5 | 0.0 | 1.6 | 0.00 | 1.83 | 0.00 | 89 | 1016.1 |
| 20260508114507 | 13 | 5 | 0.0 | 1.6 | 0.00 | 1.83 | 0.00 | 90 | 1016.0 |
| 20260508114007 | 13 | 5 | 1.6 | 3.2 | 0.00 | 1.83 | 0.00 | 90 | 1015.9 |
| 20260508113507 | 13 | 5 | 0.0 | 1.6 | 0.00 | 1.83 | 0.00 | 91 | 1015.9 |
| 20260508112508 | 13 | 10 | 0.0 | 0.0 | 0.00 | 1.83 | 0.00 | 91 | 1015.7 |
| 20260508112007 | 13 | 10 | 0.0 | 0.0 | 0.00 | 1.83 | 0.00 | 91 | 1015.5 |
| 20260508111507 | 12 | 10 | 0.0 | 1.6 | 0.00 | 1.83 | 0.00 | 91 | 1015.4 |
| 20260508111007 | 12 | 10 | 0.0 | 0.0 | 0.00 | 1.83 | 0.00 | 91 | 1015.4 |
| 20260508110507 | 12 | 10 | 0.0 | 0.0 | 0.00 | 1.83 | 0.00 | 91 | 1015.4 |
| 20260508110007 | 12 | 10 | 0.0 | 0.0 | 0.00 | 1.83 | 0.00 | 91 | 1015.4 |
| 20260508105507 | 12 | 10 | 0.0 | 0.0 | 0.00 | 1.83 | 0.00 | 90 | 1015.2 |
| 20260508105007 | 12 | 10 | 0.0 | 0.0 | 0.00 | 1.85 | 0.00 | 90 | 1015.2 |
| 20260508104507 | 12 | 10 | 0.0 | 0.0 | 0.00 | 1.88 | 0.00 | 90 | 1015.1 |
| 20260508104007 | 12 | 10 | 0.0 | 0.0 | 0.00 | 1.91 | 0.00 | 90 | 1015.1 |
| 20260508103007 | 13 | 10 | 0.0 | 0.0 | 0.00 | 1.91 | 0.00 | 89 | 1015.0 |
| 20260508102506 | 13 | 10 | 0.0 | 0.0 | 0.00 | 1.93 | 0.00 | 89 | 1014.7 |
| 20260508101507 | 13 | 10 | 0.0 | 0.0 | 0.00 | 1.93 | 0.00 | 89 | 1014.7 |
| 20260508100507 | 13 | 10 | 0.0 | 0.0 | 0.00 | 1.93 | 0.00 | 88 | 1014.6 |
| 20260508100007 | 13 | 10 | 0.0 | 0.0 | 0.00 | 1.93 | 0.00 | 87 | 1014.7 |
| 20260508095507 | 13 | 10 | 0.0 | 0.0 | 0.00 | 1.93 | 0.00 | 87 | 1014.5 |
| 20260508095006 | 13 | 10 | 0.0 | 0.0 | 0.00 | 1.93 | 0.00 | 87 | 1014.2 |
| 20260508094507 | 13 | 10 | 0.0 | 0.0 | 0.00 | 1.93 | 0.00 | 87 | 1014.1 |
| 20260508094007 | 13 | 10 | 0.0 | 0.0 | 0.00 | 1.93 | 0.00 | 87 | 1014.0 |
| 20260508093507 | 13 | 10 | 0.0 | 0.0 | 0.00 | 1.93 | 0.00 | 86 | 1014.0 |
| 20260508093007 | 13 | 10 | 0.0 | 1.6 | 0.00 | 1.93 | 0.00 | 86 | 1014.0 |
| 20260508092007 | 13 | 10 | 0.0 | 1.6 | 0.00 | 1.93 | 0.00 | 86 | 1013.8 |
| 20260508091507 | 13 | 10 | 0.0 | 0.0 | 0.00 | 1.93 | 0.00 | 86 | 1014.0 |
| 20260508091007 | 13 | 10 | 0.0 | 0.0 | 0.00 | 1.93 | 0.00 | 86 | 1013.7 |
| 20260508090507 | 13 | 10 | 0.0 | 0.0 | 0.00 | 1.93 | 0.00 | 85 | 1013.6 |
| 20260508085507 | 13 | 352 | 1.6 | 4.8 | 0.00 | 1.93 | 0.00 | 85 | 1013.6 |
| 20260508085007 | 13 | 15 | 0.0 | 1.6 | 0.00 | 1.93 | 0.00 | 85 | 1013.6 |
| 20260508084507 | 13 | 0 | 0.0 | 1.6 | 0.00 | 1.96 | 0.00 | 84 | 1013.6 |
| 20260508084006 | 13 | 0 | 0.0 | 1.6 | 0.00 | 1.98 | 0.00 | 84 | 1013.6 |
| 20260508083506 | 13 | 355 | 0.0 | 3.2 | 0.00 | 2.06 | 0.00 | 84 | 1013.4 |
| 20260508083007 | 14 | 0 | 0.0 | 1.6 | 0.00 | 2.11 | 0.00 | 84 | 1013.4 |
| 20260508082507 | 14 | 9 | 0.0 | 3.2 | 0.00 | 2.13 | 0.00 | 83 | 1013.5 |
| 20260508082007 | 14 | 84 | 0.0 | 1.6 | 0.00 | 2.16 | 0.00 | 83 | 1013.5 |
| 20260508081507 | 14 | 123 | 0.0 | 1.6 | 0.00 | 2.18 | 0.00 | 83 | 1013.5 |
| 20260508080506 | 14 | 354 | 0.0 | 1.6 | 0.00 | 2.24 | 0.00 | 82 | 1013.3 |
| 20260508080006 | 14 | 342 | 1.6 | 3.2 | 0.00 | 2.29 | 0.00 | 82 | 1013.3 |
| 20260508075506 | 14 | 337 | 0.0 | 3.2 | 0.00 | 2.29 | 0.00 | 81 | 1013.3 |
| 20260508075007 | 15 | 319 | 1.6 | 3.2 | 0.00 | 2.31 | 0.00 | 81 | 1013.4 |
| 20260508074507 | 15 | 321 | 0.0 | 3.2 | 0.00 | 2.34 | 0.00 | 80 | 1013.3 |
| 20260508074007 | 15 | 351 | 1.6 | 4.8 | 0.00 | 2.34 | 0.00 | 80 | 1013.3 |
| 20260508073506 | 15 | 331 | 3.2 | 4.8 | 0.00 | 2.36 | 0.00 | 79 | 1013.3 |
| 20260508073006 | 15 | 332 | 3.2 | 4.8 | 0.00 | 2.39 | 0.00 | 79 | 1013.3 |
| 20260508072507 | 15 | 324 | 3.2 | 4.8 | 0.00 | 2.39 | 0.00 | 79 | 1013.4 |
| 20260508072007 | 15 | 273 | 1.6 | 4.8 | 0.00 | 2.39 | 0.00 | 79 | 1013.3 |
| 20260508071006 | 15 | 324 | 3.2 | 4.8 | 0.00 | 2.41 | 0.00 | 78 | 1013.6 |
| 20260508070507 | 15 | 331 | 1.6 | 4.8 | 0.00 | 2.41 | 0.00 | 78 | 1013.4 |
| 20260508070006 | 15 | 336 | 1.6 | 3.2 | 0.00 | 2.44 | 0.00 | 78 | 1013.4 |
| 20260508065506 | 15 | 8 | 1.6 | 4.8 | 0.00 | 2.44 | 0.00 | 78 | 1013.5 |
| 20260508065006 | 15 | 336 | 0.0 | 3.2 | 0.00 | 2.46 | 0.00 | 77 | 1013.3 |